Time,TemperatureF,DewpointF,PressureIn,WindDirection,WindDirectionDegrees,WindSpeedMPH,WindSpeedGustMPH,Humidity,HourlyPrecipIn,Conditions,Clouds,dailyrainin,SoftwareType,DateUTC
2013-09-28 00:01:00,60.1,57.7,30.19,North,0,1.6,2.2,92,0.00,,,0.00,meteobridge,2013-09-28 04:01:00,
2013-09-28 00:02:00,60.1,57.7,30.19,East,90,1.6,2.2,92,0.00,,,0.00,meteobridge,2013-09-28 04:02:00,
2013-09-28 00:04:00,60.1,58.1,30.19,NE,45,1.6,2.2,93,0.00,,,0.00,meteobridge,2013-09-28 04:04:00,
2013-09-28 00:09:00,59.9,57.9,30.19,NE,45,2.2,2.2,93,0.00,,,0.00,meteobridge,2013-09-28 04:09:00,
2013-09-28 00:14:00,59.9,57.9,30.19,NE,45,2.2,2.2,93,0.00,,,0.00,meteobridge,2013-09-28 04:14:00,
2013-09-28 00:19:00,59.9,57.9,30.19,East,90,1.6,3.1,93,0.00,,,0.00,meteobridge,2013-09-28 04:19:00,
2013-09-28 00:24:00,59.9,58.1,30.19,SE,135,1.6,1.6,94,0.00,,,0.00,meteobridge,2013-09-28 04:24:00,
2013-09-28 00:30:00,59.7,57.9,30.19,NE,45,1.6,2.2,94,0.00,,,0.00,meteobridge,2013-09-28 04:30:00,
2013-09-28 00:35:00,59.7,57.9,30.19,East,90,2.2,2.2,94,0.00,,,0.00,meteobridge,2013-09-28 04:35:00,
2013-09-28 00:40:00,59.7,57.9,30.19,East,90,1.6,1.6,94,0.00,,,0.00,meteobridge,2013-09-28 04:40:00,
2013-09-28 00:45:00,59.5,57.7,30.18,NE,45,3.1,3.1,94,0.00,,,0.00,meteobridge,2013-09-28 04:45:00,
2013-09-28 00:50:00,59.5,57.7,30.18,North,0,2.2,2.2,94,0.00,,,0.00,meteobridge,2013-09-28 04:50:00,
2013-09-28 00:55:00,59.4,57.6,30.19,North,0,1.6,2.2,94,0.00,,,0.00,meteobridge,2013-09-28 04:55:00,
2013-09-28 01:01:00,59.4,57.6,30.19,South,180,0.7,2.2,94,0.00,,,0.00,meteobridge,2013-09-28 05:01:00,
2013-09-28 01:06:00,59.2,57.4,30.18,NE,45,2.2,2.2,94,0.00,,,0.00,meteobridge,2013-09-28 05:06:00,
2013-09-28 01:11:00,59.2,57.4,30.19,SE,135,3.1,3.1,94,0.00,,,0.00,meteobridge,2013-09-28 05:11:00,
2013-09-28 01:16:00,59.0,57.0,30.18,East,90,2.2,3.1,93,0.00,,,0.00,meteobridge,2013-09-28 05:16:00,
2013-09-28 01:21:00,58.8,57.0,30.19,NE,45,1.6,1.6,94,0.00,,,0.00,meteobridge,2013-09-28 05:21:00,
2013-09-28 01:26:00,58.6,56.8,30.19,NE,45,2.2,2.2,94,0.00,,,0.00,meteobridge,2013-09-28 05:26:00,
2013-09-28 01:32:00,58.6,57.2,30.19,East,90,1.6,1.6,95,0.00,,,0.00,meteobridge,2013-09-28 05:32:00,
2013-09-28 01:37:00,58.6,57.2,30.19,East,90,2.2,3.1,95,0.00,,,0.00,meteobridge,2013-09-28 05:37:00,
2013-09-28 01:42:00,58.6,57.2,30.19,North,0,2.2,2.2,95,0.00,,,0.00,meteobridge,2013-09-28 05:42:00,
2013-09-28 01:47:00,58.5,57.0,30.18,North,0,2.2,2.2,95,0.00,,,0.00,meteobridge,2013-09-28 05:47:00,
2013-09-28 01:52:00,58.5,57.4,30.19,NNE,23,4.5,4.5,96,0.00,,,0.00,meteobridge,2013-09-28 05:52:00,
2013-09-28 01:58:00,58.5,57.6,30.18,North,0,3.1,3.1,97,0.00,,,0.00,meteobridge,2013-09-28 05:58:00,
2013-09-28 02:03:00,58.5,57.6,30.18,NE,45,2.2,3.8,97,0.00,,,0.00,meteobridge,2013-09-28 06:03:00,
2013-09-28 02:08:00,58.3,57.4,30.19,NE,45,4.5,4.5,97,0.00,,,0.00,meteobridge,2013-09-28 06:08:00,
2013-09-28 02:13:00,58.3,57.4,30.18,NNE,23,4.5,4.5,97,0.00,,,0.00,meteobridge,2013-09-28 06:13:00,
2013-09-28 02:18:00,58.3,57.4,30.18,North,0,3.1,3.8,97,0.00,,,0.00,meteobridge,2013-09-28 06:18:00,
2013-09-28 02:23:00,58.1,57.2,30.18,NE,45,2.2,3.8,97,0.00,,,0.00,meteobridge,2013-09-28 06:23:00,
2013-09-28 02:29:00,58.1,57.2,30.18,NE,45,3.1,3.1,97,0.00,,,0.00,meteobridge,2013-09-28 06:29:00,
2013-09-28 02:34:00,57.9,57.0,30.18,East,90,2.2,2.2,97,0.00,,,0.00,meteobridge,2013-09-28 06:34:00,
2013-09-28 02:39:00,57.7,56.8,30.18,North,0,3.8,3.8,97,0.00,,,0.00,meteobridge,2013-09-28 06:39:00,
2013-09-28 02:44:00,57.7,56.8,30.18,East,90,3.1,3.1,97,0.00,,,0.00,meteobridge,2013-09-28 06:44:00,
2013-09-28 02:49:00,57.7,56.8,30.18,North,0,1.6,1.6,97,0.00,,,0.00,meteobridge,2013-09-28 06:49:00,
2013-09-28 02:54:00,57.7,56.8,30.18,NE,45,3.1,4.5,97,0.00,,,0.00,meteobridge,2013-09-28 06:54:00,
2013-09-28 03:00:00,57.7,56.8,30.17,NE,45,3.1,3.8,97,0.00,,,0.00,meteobridge,2013-09-28 07:00:00,
2013-09-28 03:05:00,57.7,56.8,30.17,East,90,3.1,3.1,97,0.00,,,0.00,meteobridge,2013-09-28 07:05:00,
2013-09-28 03:10:00,57.6,56.7,30.17,NE,45,2.2,3.1,97,0.00,,,0.00,meteobridge,2013-09-28 07:10:00,
2013-09-28 03:15:00,57.6,56.7,30.17,NE,45,3.1,3.8,97,0.00,,,0.00,meteobridge,2013-09-28 07:15:00,
2013-09-28 03:20:00,57.4,56.5,30.17,NE,45,3.8,3.8,97,0.00,,,0.00,meteobridge,2013-09-28 07:20:00,
2013-09-28 03:25:00,57.2,56.7,30.17,NE,45,3.1,3.1,98,0.00,,,0.00,meteobridge,2013-09-28 07:25:00,
2013-09-28 03:31:00,57.0,56.7,30.17,East,90,1.6,3.1,99,0.00,,,0.00,meteobridge,2013-09-28 07:31:00,
2013-09-28 03:36:00,57.0,56.7,30.17,NE,45,2.2,3.1,99,0.00,,,0.00,meteobridge,2013-09-28 07:36:00,
2013-09-28 03:41:00,57.0,56.7,30.17,NE,45,3.1,3.1,99,0.00,,,0.00,meteobridge,2013-09-28 07:41:00,
2013-09-28 03:46:00,57.0,56.7,30.17,NE,45,2.2,2.2,99,0.00,,,0.00,meteobridge,2013-09-28 07:46:00,
2013-09-28 03:51:00,56.8,56.5,30.17,East,90,3.1,3.1,99,0.00,,,0.00,meteobridge,2013-09-28 07:51:00,
2013-09-28 03:56:00,57.0,56.7,30.17,NE,45,2.2,2.2,99,0.00,,,0.00,meteobridge,2013-09-28 07:56:00,
2013-09-28 04:02:00,56.8,56.5,30.17,East,90,3.1,3.1,99,0.00,,,0.00,meteobridge,2013-09-28 08:02:00,
2013-09-28 04:07:00,56.8,56.5,30.17,East,90,2.2,3.8,99,0.00,,,0.00,meteobridge,2013-09-28 08:07:00,
2013-09-28 04:12:00,56.8,56.5,30.17,East,90,1.6,3.1,99,0.00,,,0.00,meteobridge,2013-09-28 08:12:00,
2013-09-28 04:17:00,56.8,56.5,30.17,NE,45,2.2,2.2,99,0.00,,,0.00,meteobridge,2013-09-28 08:17:00,
2013-09-28 04:22:00,56.7,56.3,30.17,East,90,1.6,1.6,99,0.00,,,0.00,meteobridge,2013-09-28 08:22:00,
2013-09-28 04:27:00,56.7,56.3,30.17,NE,45,2.2,2.2,99,0.00,,,0.00,meteobridge,2013-09-28 08:27:00,
2013-09-28 04:33:00,56.7,56.3,30.17,NE,45,1.6,3.1,99,0.00,,,0.00,meteobridge,2013-09-28 08:33:00,
2013-09-28 04:38:00,56.3,55.9,30.17,East,90,2.2,2.2,99,0.00,,,0.00,meteobridge,2013-09-28 08:38:00,
2013-09-28 04:43:00,56.5,56.1,30.17,SE,135,2.2,3.1,99,0.00,,,0.00,meteobridge,2013-09-28 08:43:00,
2013-09-28 04:48:00,56.3,55.9,30.17,North,0,2.2,2.2,99,0.00,,,0.00,meteobridge,2013-09-28 08:48:00,
2013-09-28 04:53:00,56.5,56.1,30.18,NE,45,3.1,3.1,99,0.00,,,0.00,meteobridge,2013-09-28 08:53:00,
2013-09-28 04:58:00,56.5,56.1,30.18,NE,45,2.2,3.1,99,0.00,,,0.00,meteobridge,2013-09-28 08:58:00,
2013-09-28 05:04:00,56.3,55.9,30.18,SE,135,0.7,0.7,99,0.00,,,0.00,meteobridge,2013-09-28 09:04:00,
2013-09-28 05:09:00,56.3,55.9,30.18,NW,315,1.6,3.1,99,0.00,,,0.00,meteobridge,2013-09-28 09:09:00,
2013-09-28 05:14:00,56.3,55.9,30.18,East,90,2.2,2.2,99,0.00,,,0.00,meteobridge,2013-09-28 09:14:00,
2013-09-28 05:19:00,56.3,55.9,30.18,East,90,3.1,3.1,99,0.00,,,0.00,meteobridge,2013-09-28 09:19:00,
2013-09-28 05:24:00,56.3,55.9,30.18,SE,135,1.6,3.1,99,0.00,,,0.00,meteobridge,2013-09-28 09:24:00,
2013-09-28 05:29:00,56.3,55.9,30.18,East,90,3.1,3.1,99,0.00,,,0.00,meteobridge,2013-09-28 09:29:00,
2013-09-28 05:35:00,56.3,55.9,30.18,SE,135,4.5,5.4,99,0.00,,,0.00,meteobridge,2013-09-28 09:35:00,
2013-09-28 05:40:00,56.1,55.8,30.19,NE,45,4.5,7.6,99,0.00,,,0.00,meteobridge,2013-09-28 09:40:00,
2013-09-28 05:45:00,56.1,55.8,30.19,NNE,23,3.8,5.4,99,0.00,,,0.00,meteobridge,2013-09-28 09:45:00,
2013-09-28 05:50:00,56.1,55.8,30.19,SE,135,1.6,2.2,99,0.00,,,0.00,meteobridge,2013-09-28 09:50:00,
2013-09-28 05:55:00,55.9,55.6,30.19,North,0,3.1,3.8,99,0.00,,,0.00,meteobridge,2013-09-28 09:55:00,
2013-09-28 06:00:00,55.8,55.4,30.19,NNE,23,3.1,4.5,99,0.00,,,0.00,meteobridge,2013-09-28 10:00:00,
2013-09-28 06:06:00,55.6,55.2,30.19,NE,45,3.8,3.8,99,0.00,,,0.00,meteobridge,2013-09-28 10:06:00,
2013-09-28 06:11:00,55.6,55.2,30.19,NNE,23,3.8,3.8,99,0.00,,,0.00,meteobridge,2013-09-28 10:11:00,
2013-09-28 06:16:00,55.6,55.2,30.19,East,90,3.1,3.1,99,0.00,,,0.00,meteobridge,2013-09-28 10:16:00,
2013-09-28 06:21:00,55.6,55.2,30.19,East,90,3.8,3.8,99,0.00,,,0.00,meteobridge,2013-09-28 10:21:00,
2013-09-28 06:26:00,55.6,55.2,30.20,East,90,3.1,3.1,99,0.00,,,0.00,meteobridge,2013-09-28 10:26:00,
2013-09-28 06:31:00,55.6,55.2,30.20,SE,135,3.8,3.8,99,0.00,,,0.00,meteobridge,2013-09-28 10:31:00,
2013-09-28 06:37:00,55.4,55.0,30.20,NE,45,3.8,3.8,99,0.00,,,0.00,meteobridge,2013-09-28 10:37:00,
2013-09-28 06:42:00,55.4,55.0,30.21,ENE,68,3.8,3.8,99,0.00,,,0.00,meteobridge,2013-09-28 10:42:00,
2013-09-28 06:47:00,55.4,55.0,30.21,East,90,3.1,3.1,99,0.00,,,0.00,meteobridge,2013-09-28 10:47:00,
2013-09-28 06:52:00,55.4,55.0,30.21,NE,45,2.2,3.8,99,0.00,,,0.00,meteobridge,2013-09-28 10:52:00,
2013-09-28 06:57:00,55.2,54.3,30.21,East,90,3.1,3.1,97,0.00,,,0.00,meteobridge,2013-09-28 10:57:00,
2013-09-28 07:02:00,55.4,55.0,30.21,SE,135,1.6,3.1,99,0.00,,,0.00,meteobridge,2013-09-28 11:02:00,
2013-09-28 07:07:00,55.4,55.0,30.21,East,90,2.2,2.2,99,0.00,,,0.00,meteobridge,2013-09-28 11:07:00,
2013-09-28 07:13:00,55.4,55.0,30.21,East,90,3.1,3.1,99,0.00,,,0.00,meteobridge,2013-09-28 11:13:00,
2013-09-28 07:18:00,55.4,55.0,30.22,SE,135,2.2,3.1,99,0.00,,,0.00,meteobridge,2013-09-28 11:18:00,
2013-09-28 07:23:00,55.4,55.0,30.22,ENE,68,3.8,3.8,99,0.00,,,0.00,meteobridge,2013-09-28 11:23:00,
2013-09-28 07:28:00,55.6,55.2,30.22,SE,135,3.8,3.8,99,0.00,,,0.00,meteobridge,2013-09-28 11:28:00,
2013-09-28 07:33:00,55.6,55.2,30.22,NE,45,3.8,3.8,99,0.00,,,0.00,meteobridge,2013-09-28 11:33:00,
2013-09-28 07:38:00,55.8,55.4,30.22,East,90,1.6,1.6,99,0.00,,,0.00,meteobridge,2013-09-28 11:38:00,
2013-09-28 07:43:00,55.8,55.4,30.22,East,90,2.2,2.2,99,0.00,,,0.00,meteobridge,2013-09-28 11:43:00,
2013-09-28 07:49:00,55.9,55.6,30.22,East,90,2.2,3.1,99,0.00,,,0.00,meteobridge,2013-09-28 11:49:00,
2013-09-28 07:54:00,56.1,55.8,30.22,NE,45,3.8,3.8,99,0.00,,,0.00,meteobridge,2013-09-28 11:54:00,
2013-09-28 07:59:00,57.6,57.2,30.23,North,0,3.8,3.8,99,0.00,,,0.00,meteobridge,2013-09-28 11:59:00,
2013-09-28 08:04:00,59.2,58.3,30.23,North,0,5.4,5.4,97,0.00,,,0.00,meteobridge,2013-09-28 12:04:00,
2013-09-28 08:09:00,59.7,57.4,30.23,NE,45,5.4,5.4,92,0.00,,,0.00,meteobridge,2013-09-28 12:09:00,
2013-09-28 08:14:00,60.3,56.7,30.23,NNW,338,6.9,6.9,88,0.00,,,0.00,meteobridge,2013-09-28 12:14:00,
2013-09-28 08:20:00,61.2,57.0,30.23,North,0,8.3,8.3,86,0.00,,,0.00,meteobridge,2013-09-28 12:20:00,
2013-09-28 08:25:00,61.5,56.3,30.23,North,0,3.1,8.3,83,0.00,,,0.00,meteobridge,2013-09-28 12:25:00,
2013-09-28 08:30:00,61.5,56.3,30.23,NNE,23,5.4,6.0,83,0.00,,,0.00,meteobridge,2013-09-28 12:30:00,
2013-09-28 08:35:00,62.1,56.5,30.23,North,0,6.9,6.9,82,0.00,,,0.00,meteobridge,2013-09-28 12:35:00,
2013-09-28 08:40:00,61.7,56.1,30.24,North,0,8.3,8.3,82,0.00,,,0.00,meteobridge,2013-09-28 12:40:00,
2013-09-28 08:45:00,61.7,56.5,30.23,North,0,6.0,8.3,83,0.00,,,0.00,meteobridge,2013-09-28 12:45:00,
2013-09-28 08:50:00,62.1,56.5,30.24,North,0,5.4,6.9,82,0.00,,,0.00,meteobridge,2013-09-28 12:50:00,
2013-09-28 08:56:00,63.0,57.0,30.24,North,0,6.0,7.6,81,0.00,,,0.00,meteobridge,2013-09-28 12:56:00,
2013-09-28 09:01:00,63.1,57.2,30.24,North,0,7.6,7.6,81,0.00,,,0.00,meteobridge,2013-09-28 13:01:00,
2013-09-28 09:06:00,63.0,56.7,30.24,NW,315,8.3,10.7,80,0.00,,,0.00,meteobridge,2013-09-28 13:06:00,
2013-09-28 09:11:00,63.0,57.0,30.25,North,0,12.1,12.1,81,0.00,,,0.00,meteobridge,2013-09-28 13:11:00,
2013-09-28 09:16:00,63.3,57.4,30.25,NE,45,8.3,9.2,81,0.00,,,0.00,meteobridge,2013-09-28 13:16:00,
2013-09-28 09:21:00,64.0,58.1,30.25,NE,45,6.0,6.0,81,0.00,,,0.00,meteobridge,2013-09-28 13:21:00,
2013-09-28 09:27:00,64.4,57.4,30.25,North,0,6.0,9.2,78,0.00,,,0.00,meteobridge,2013-09-28 13:27:00,
2013-09-28 09:32:00,64.9,57.6,30.25,NW,315,9.2,10.7,77,0.00,,,0.00,meteobridge,2013-09-28 13:32:00,
2013-09-28 09:37:00,64.2,57.6,30.25,NNW,338,9.2,12.1,79,0.00,,,0.00,meteobridge,2013-09-28 13:37:00,
2013-09-28 09:42:00,64.6,57.6,30.26,North,0,6.9,13.0,78,0.00,,,0.00,meteobridge,2013-09-28 13:42:00,
2013-09-28 09:47:00,64.6,57.2,30.25,North,0,13.6,15.2,77,0.00,,,0.00,meteobridge,2013-09-28 13:47:00,
2013-09-28 09:52:00,64.8,58.1,30.26,North,0,11.4,11.4,79,0.00,,,0.00,meteobridge,2013-09-28 13:52:00,
2013-09-28 09:58:00,65.3,57.9,30.26,NW,315,9.2,9.2,77,0.00,,,0.00,meteobridge,2013-09-28 13:58:00,
2013-09-28 10:03:00,66.0,57.9,30.25,North,0,13.0,13.0,75,0.00,,,0.00,meteobridge,2013-09-28 14:03:00,
2013-09-28 10:08:00,65.7,57.9,30.26,North,0,11.4,13.6,76,0.00,,,0.00,meteobridge,2013-09-28 14:08:00,
2013-09-28 10:13:00,66.4,57.9,30.25,WNW,293,6.9,10.7,74,0.00,,,0.00,meteobridge,2013-09-28 14:13:00,
2013-09-28 10:18:00,67.3,56.8,30.26,NW,315,10.7,13.0,69,0.00,,,0.00,meteobridge,2013-09-28 14:18:00,
2013-09-28 10:23:00,68.2,56.8,30.25,North,0,10.7,10.7,67,0.00,,,0.00,meteobridge,2013-09-28 14:23:00,
2013-09-28 10:29:00,68.0,57.0,30.25,North,0,8.3,9.8,68,0.00,,,0.00,meteobridge,2013-09-28 14:29:00,
2013-09-28 10:34:00,68.5,56.7,30.25,North,0,9.2,10.7,66,0.00,,,0.00,meteobridge,2013-09-28 14:34:00,
2013-09-28 10:39:00,68.7,56.8,30.25,North,0,11.4,15.2,66,0.00,,,0.00,meteobridge,2013-09-28 14:39:00,
2013-09-28 10:44:00,68.2,55.6,30.24,North,0,10.7,14.5,64,0.00,,,0.00,meteobridge,2013-09-28 14:44:00,
2013-09-28 10:49:00,68.0,54.9,30.25,WNW,293,14.5,14.5,63,0.00,,,0.00,meteobridge,2013-09-28 14:49:00,
2013-09-28 10:54:00,67.6,55.4,30.25,North,0,13.0,19.7,65,0.00,,,0.00,meteobridge,2013-09-28 14:54:00,
2013-09-28 11:00:00,67.3,54.7,30.25,North,0,15.2,15.2,64,0.00,,,0.00,meteobridge,2013-09-28 15:00:00,
2013-09-28 11:05:00,68.0,54.0,30.24,North,0,13.6,13.6,61,0.00,,,0.00,meteobridge,2013-09-28 15:05:00,
2013-09-28 11:10:00,67.8,53.4,30.25,NE,45,11.4,14.5,60,0.00,,,0.00,meteobridge,2013-09-28 15:10:00,
2013-09-28 11:15:00,68.5,52.7,30.25,North,0,15.2,15.2,57,0.00,,,0.00,meteobridge,2013-09-28 15:15:00,
2013-09-28 11:20:00,68.2,51.8,30.25,NNE,23,14.5,16.8,56,0.00,,,0.00,meteobridge,2013-09-28 15:20:00,
2013-09-28 11:25:00,68.2,52.3,30.25,North,0,16.8,16.8,57,0.00,,,0.00,meteobridge,2013-09-28 15:25:00,
2013-09-28 11:31:00,67.8,52.5,30.24,SW,225,15.2,15.2,58,0.00,,,0.00,meteobridge,2013-09-28 15:31:00,
2013-09-28 11:36:00,68.0,52.7,30.24,North,0,16.8,16.8,58,0.00,,,0.00,meteobridge,2013-09-28 15:36:00,
2013-09-28 11:41:00,68.4,52.5,30.24,North,0,13.0,15.9,57,0.00,,,0.00,meteobridge,2013-09-28 15:41:00,
2013-09-28 11:46:00,67.5,53.1,30.24,North,0,9.2,15.9,60,0.00,,,0.00,meteobridge,2013-09-28 15:46:00,
2013-09-28 11:51:00,67.5,52.7,30.24,North,0,9.8,15.2,59,0.00,,,0.00,meteobridge,2013-09-28 15:51:00,
2013-09-28 11:56:00,68.0,52.7,30.25,NE,45,13.0,19.7,58,0.00,,,0.00,meteobridge,2013-09-28 15:56:00,
2013-09-28 12:02:00,67.5,52.7,30.24,North,0,11.4,15.2,59,0.00,,,0.00,meteobridge,2013-09-28 16:02:00,
2013-09-28 12:07:00,67.5,53.1,30.24,North,0,11.4,11.4,60,0.00,,,0.00,meteobridge,2013-09-28 16:07:00,
2013-09-28 12:12:00,68.0,52.7,30.24,North,0,7.6,10.7,58,0.00,,,0.00,meteobridge,2013-09-28 16:12:00,
2013-09-28 12:17:00,70.9,53.4,30.24,North,0,6.9,7.6,54,0.00,,,0.00,meteobridge,2013-09-28 16:17:00,
2013-09-28 12:22:00,73.2,53.4,30.24,North,0,13.6,13.6,50,0.00,,,0.00,meteobridge,2013-09-28 16:22:00,
2013-09-28 12:27:00,70.5,52.5,30.24,WNW,293,13.0,15.2,53,0.00,,,0.00,meteobridge,2013-09-28 16:27:00,
2013-09-28 12:33:00,71.6,53.1,30.24,NE,45,17.4,17.4,52,0.00,,,0.00,meteobridge,2013-09-28 16:33:00,
2013-09-28 12:38:00,71.6,50.9,30.24,North,0,9.8,10.7,48,0.00,,,0.00,meteobridge,2013-09-28 16:38:00,
2013-09-28 12:43:00,71.4,52.9,30.24,North,0,13.6,13.6,52,0.00,,,0.00,meteobridge,2013-09-28 16:43:00,
2013-09-28 12:48:00,71.4,53.4,30.23,North,0,15.2,15.2,53,0.00,,,0.00,meteobridge,2013-09-28 16:48:00,
2013-09-28 12:53:00,70.3,52.3,30.24,North,0,13.6,13.6,53,0.00,,,0.00,meteobridge,2013-09-28 16:53:00,
2013-09-28 12:58:00,70.0,53.1,30.24,North,0,13.0,13.0,55,0.00,,,0.00,meteobridge,2013-09-28 16:58:00,
2013-09-28 13:04:00,70.3,52.9,30.24,East,90,9.2,9.2,54,0.00,,,0.00,meteobridge,2013-09-28 17:04:00,
2013-09-28 13:09:00,70.7,52.7,30.23,East,90,6.0,9.2,53,0.00,,,0.00,meteobridge,2013-09-28 17:09:00,
2013-09-28 13:14:00,71.6,52.5,30.23,East,90,3.8,4.5,51,0.00,,,0.00,meteobridge,2013-09-28 17:14:00,
2013-09-28 13:19:00,73.6,52.7,30.23,North,0,8.3,9.2,48,0.00,,,0.00,meteobridge,2013-09-28 17:19:00,
2013-09-28 13:24:00,71.1,52.5,30.23,North,0,9.2,9.2,52,0.00,,,0.00,meteobridge,2013-09-28 17:24:00,
2013-09-28 13:29:00,69.8,52.0,30.23,North,0,9.8,10.7,53,0.00,,,0.00,meteobridge,2013-09-28 17:29:00,
2013-09-28 13:35:00,70.0,53.1,30.22,NW,315,9.2,10.7,55,0.00,,,0.00,meteobridge,2013-09-28 17:35:00,
2013-09-28 13:40:00,72.5,51.1,30.22,East,90,4.5,9.2,47,0.00,,,0.00,meteobridge,2013-09-28 17:40:00,
2013-09-28 13:45:00,71.6,49.6,30.22,North,0,14.5,16.8,46,0.00,,,0.00,meteobridge,2013-09-28 17:45:00,
2013-09-28 13:50:00,70.5,52.0,30.22,North,0,14.5,19.0,52,0.00,,,0.00,meteobridge,2013-09-28 17:50:00,
2013-09-28 13:55:00,71.8,52.7,30.22,NW,315,6.9,11.4,51,0.00,,,0.00,meteobridge,2013-09-28 17:55:00,
2013-09-28 14:00:00,71.1,50.4,30.21,North,0,8.3,14.5,48,0.00,,,0.00,meteobridge,2013-09-28 18:00:00,
2013-09-28 14:06:00,72.3,53.8,30.21,North,0,13.6,13.6,52,0.00,,,0.00,meteobridge,2013-09-28 18:06:00,
2013-09-28 14:11:00,71.1,53.1,30.21,NW,315,8.3,14.5,53,0.00,,,0.00,meteobridge,2013-09-28 18:11:00,
2013-09-28 14:16:00,71.6,53.6,30.21,NW,315,8.3,9.2,53,0.00,,,0.00,meteobridge,2013-09-28 18:16:00,
2013-09-28 14:21:00,72.3,54.1,30.20,NW,315,8.3,13.6,53,0.00,,,0.00,meteobridge,2013-09-28 18:21:00,
2013-09-28 14:26:00,72.9,52.0,30.20,NW,315,6.0,9.8,48,0.00,,,0.00,meteobridge,2013-09-28 18:26:00,
2013-09-28 14:31:00,72.3,54.1,30.19,North,0,10.7,10.7,53,0.00,,,0.00,meteobridge,2013-09-28 18:31:00,
2013-09-28 14:37:00,70.9,52.3,30.20,North,0,7.6,10.7,52,0.00,,,0.00,meteobridge,2013-09-28 18:37:00,
2013-09-28 14:42:00,70.9,54.0,30.19,North,0,11.4,11.4,55,0.00,,,0.00,meteobridge,2013-09-28 18:42:00,
2013-09-28 14:47:00,72.9,53.6,30.19,North,0,8.3,10.7,51,0.00,,,0.00,meteobridge,2013-09-28 18:47:00,
2013-09-28 14:52:00,75.2,53.1,30.19,North,0,4.5,5.4,46,0.00,,,0.00,meteobridge,2013-09-28 18:52:00,
2013-09-28 14:57:00,77.4,54.3,30.19,North,0,6.0,6.0,45,0.00,,,0.00,meteobridge,2013-09-28 18:57:00,
2013-09-28 15:03:00,76.6,53.1,30.18,North,0,9.2,9.2,44,0.00,,,0.00,meteobridge,2013-09-28 19:03:00,
2013-09-28 15:08:00,77.0,52.9,30.18,SW,225,3.1,8.3,43,0.00,,,0.00,meteobridge,2013-09-28 19:08:00,
2013-09-28 15:13:00,77.7,52.2,30.18,North,0,9.8,13.0,41,0.00,,,0.00,meteobridge,2013-09-28 19:13:00,
2013-09-28 15:18:00,74.3,53.4,30.19,NE,45,6.0,9.8,48,0.00,,,0.00,meteobridge,2013-09-28 19:18:00,
2013-09-28 15:23:00,72.7,53.4,30.18,NE,45,9.2,13.0,51,0.00,,,0.00,meteobridge,2013-09-28 19:23:00,
2013-09-28 15:28:00,71.6,53.1,30.18,North,0,15.9,15.9,52,0.00,,,0.00,meteobridge,2013-09-28 19:28:00,
2013-09-28 15:34:00,71.1,54.1,30.18,NW,315,13.6,13.6,55,0.00,,,0.00,meteobridge,2013-09-28 19:34:00,
2013-09-28 15:39:00,71.2,54.3,30.18,NW,315,9.2,13.6,55,0.00,,,0.00,meteobridge,2013-09-28 19:39:00,
2013-09-28 15:44:00,72.9,54.7,30.19,NW,315,6.0,7.6,53,0.00,,,0.00,meteobridge,2013-09-28 19:44:00,
2013-09-28 15:49:00,74.5,52.9,30.18,NE,45,3.1,7.6,47,0.00,,,0.00,meteobridge,2013-09-28 19:49:00,
2013-09-28 15:54:00,77.2,53.6,30.17,North,0,12.1,12.1,44,0.00,,,0.00,meteobridge,2013-09-28 19:54:00,
2013-09-28 15:59:00,73.8,52.3,30.17,North,0,9.2,9.8,47,0.00,,,0.00,meteobridge,2013-09-28 19:59:00,
2013-09-28 16:05:00,75.2,53.6,30.17,WNW,293,5.4,6.9,47,0.00,,,0.00,meteobridge,2013-09-28 20:05:00,
2013-09-28 16:10:00,77.2,53.6,30.17,East,90,4.5,6.0,44,0.00,,,0.00,meteobridge,2013-09-28 20:10:00,
2013-09-28 16:15:00,76.3,54.5,30.17,NW,315,11.4,12.1,47,0.00,,,0.00,meteobridge,2013-09-28 20:15:00,
2013-09-28 16:20:00,72.9,53.6,30.17,WNW,293,7.6,12.1,51,0.00,,,0.00,meteobridge,2013-09-28 20:20:00,
2013-09-28 16:25:00,72.3,53.8,30.17,NE,45,6.0,8.3,52,0.00,,,0.00,meteobridge,2013-09-28 20:25:00,
2013-09-28 16:30:00,72.1,53.6,30.17,North,0,6.9,6.9,52,0.00,,,0.00,meteobridge,2013-09-28 20:30:00,
2013-09-28 16:36:00,72.3,54.1,30.17,North,0,5.4,5.4,53,0.00,,,0.00,meteobridge,2013-09-28 20:36:00,
2013-09-28 16:41:00,72.5,54.0,30.17,NW,315,4.5,5.4,52,0.00,,,0.00,meteobridge,2013-09-28 20:41:00,
2013-09-28 16:46:00,74.1,55.9,30.16,North,0,9.8,9.8,53,0.00,,,0.00,meteobridge,2013-09-28 20:46:00,
2013-09-28 16:51:00,74.7,54.9,30.16,North,0,9.8,9.8,50,0.00,,,0.00,meteobridge,2013-09-28 20:51:00,
2013-09-28 16:56:00,75.7,53.4,30.16,NW,315,3.8,6.0,46,0.00,,,0.00,meteobridge,2013-09-28 20:56:00,
2013-09-28 17:01:00,77.5,55.0,30.17,NW,315,3.8,6.0,46,0.00,,,0.00,meteobridge,2013-09-28 21:01:00,
2013-09-28 17:07:00,77.5,55.0,30.17,North,0,9.8,9.8,46,0.00,,,0.00,meteobridge,2013-09-28 21:07:00,
2013-09-28 17:12:00,73.8,54.0,30.16,NE,45,11.4,14.5,50,0.00,,,0.00,meteobridge,2013-09-28 21:12:00,
2013-09-28 17:17:00,72.1,53.6,30.17,North,0,9.8,11.4,52,0.00,,,0.00,meteobridge,2013-09-28 21:17:00,
2013-09-28 17:22:00,71.6,53.6,30.17,North,0,6.0,6.0,53,0.00,,,0.00,meteobridge,2013-09-28 21:22:00,
2013-09-28 17:27:00,71.1,55.0,30.17,NNE,23,9.2,9.2,57,0.00,,,0.00,meteobridge,2013-09-28 21:27:00,
2013-09-28 17:32:00,72.3,54.7,30.17,North,0,6.9,8.3,54,0.00,,,0.00,meteobridge,2013-09-28 21:32:00,
2013-09-28 17:37:00,73.8,55.0,30.17,NW,315,5.4,6.9,52,0.00,,,0.00,meteobridge,2013-09-28 21:37:00,
2013-09-28 17:43:00,74.1,54.9,30.17,North,0,7.6,8.3,51,0.00,,,0.00,meteobridge,2013-09-28 21:43:00,
2013-09-28 17:48:00,74.1,55.9,30.16,North,0,8.3,8.3,53,0.00,,,0.00,meteobridge,2013-09-28 21:48:00,
2013-09-28 17:53:00,74.1,56.5,30.16,NW,315,9.2,9.2,54,0.00,,,0.00,meteobridge,2013-09-28 21:53:00,
2013-09-28 17:58:00,73.8,56.1,30.16,NW,315,6.9,9.2,54,0.00,,,0.00,meteobridge,2013-09-28 21:58:00,
2013-09-28 18:03:00,74.1,57.4,30.16,NW,315,6.0,9.2,56,0.00,,,0.00,meteobridge,2013-09-28 22:03:00,
2013-09-28 18:08:00,74.7,56.5,30.16,North,0,8.3,8.3,53,0.00,,,0.00,meteobridge,2013-09-28 22:08:00,
2013-09-28 18:14:00,73.8,55.0,30.17,North,0,9.8,11.4,52,0.00,,,0.00,meteobridge,2013-09-28 22:14:00,
2013-09-28 18:19:00,73.8,56.1,30.17,North,0,7.6,7.6,54,0.00,,,0.00,meteobridge,2013-09-28 22:19:00,
2013-09-28 18:24:00,74.1,55.9,30.17,NW,315,8.3,8.3,53,0.00,,,0.00,meteobridge,2013-09-28 22:24:00,
2013-09-28 18:29:00,73.8,55.6,30.17,North,0,7.6,7.6,53,0.00,,,0.00,meteobridge,2013-09-28 22:29:00,
2013-09-28 18:34:00,73.8,55.6,30.18,North,0,6.0,8.3,53,0.00,,,0.00,meteobridge,2013-09-28 22:34:00,
2013-09-28 18:39:00,73.6,56.5,30.18,North,0,8.3,8.3,55,0.00,,,0.00,meteobridge,2013-09-28 22:39:00,
2013-09-28 18:45:00,73.0,56.5,30.18,NNW,338,4.5,9.2,56,0.00,,,0.00,meteobridge,2013-09-28 22:45:00,
2013-09-28 18:50:00,72.7,56.1,30.18,North,0,7.6,7.6,56,0.00,,,0.00,meteobridge,2013-09-28 22:50:00,
2013-09-28 18:55:00,72.3,56.7,30.18,WNW,293,6.0,6.0,58,0.00,,,0.00,meteobridge,2013-09-28 22:55:00,
2013-09-28 19:00:00,71.2,56.1,30.18,NW,315,5.4,5.4,59,0.00,,,0.00,meteobridge,2013-09-28 23:00:00,
2013-09-28 19:05:00,70.2,55.6,30.18,North,0,9.2,9.2,60,0.00,,,0.00,meteobridge,2013-09-28 23:05:00,
2013-09-28 19:10:00,69.4,56.3,30.18,North,0,6.9,10.7,63,0.00,,,0.00,meteobridge,2013-09-28 23:10:00,
2013-09-28 19:16:00,69.1,55.9,30.19,NE,45,4.5,6.9,63,0.00,,,0.00,meteobridge,2013-09-28 23:16:00,
2013-09-28 19:21:00,68.7,56.1,30.19,NE,45,3.1,4.5,64,0.00,,,0.00,meteobridge,2013-09-28 23:21:00,
2013-09-28 19:26:00,68.4,55.8,30.18,North,0,4.5,4.5,64,0.00,,,0.00,meteobridge,2013-09-28 23:26:00,
2013-09-28 19:31:00,68.0,56.3,30.18,NE,45,3.1,3.8,66,0.00,,,0.00,meteobridge,2013-09-28 23:31:00,
2013-09-28 19:36:00,67.8,56.5,30.18,North,0,3.1,3.1,67,0.00,,,0.00,meteobridge,2013-09-28 23:36:00,
2013-09-28 19:41:00,67.3,56.3,30.18,NNW,338,3.1,4.5,68,0.00,,,0.00,meteobridge,2013-09-28 23:41:00,
2013-09-28 19:47:00,67.1,56.7,30.18,SE,135,1.6,2.2,69,0.00,,,0.00,meteobridge,2013-09-28 23:47:00,
2013-09-28 19:52:00,66.9,56.5,30.18,North,0,3.1,3.1,69,0.00,,,0.00,meteobridge,2013-09-28 23:52:00,
2013-09-28 19:57:00,66.7,56.3,30.18,North,0,3.8,3.8,69,0.00,,,0.00,meteobridge,2013-09-28 23:57:00,
2013-09-28 20:02:00,66.4,56.3,30.19,SE,135,3.8,3.8,70,0.00,,,0.00,meteobridge,2013-09-29 00:02:00,
2013-09-28 20:07:00,66.4,56.7,30.19,North,0,2.2,3.8,71,0.00,,,0.00,meteobridge,2013-09-29 00:07:00,
2013-09-28 20:12:00,66.2,56.8,30.18,NE,45,3.1,3.8,72,0.00,,,0.00,meteobridge,2013-09-29 00:12:00,
2013-09-28 20:18:00,66.0,57.2,30.18,SE,135,2.2,3.1,73,0.00,,,0.00,meteobridge,2013-09-29 00:18:00,
2013-09-28 20:23:00,65.8,57.7,30.18,East,90,1.6,3.8,75,0.00,,,0.00,meteobridge,2013-09-29 00:23:00,
2013-09-28 20:28:00,65.7,57.6,30.18,North,0,1.6,5.4,75,0.00,,,0.00,meteobridge,2013-09-29 00:28:00,
2013-09-28 20:33:00,65.7,57.9,30.19,NNW,338,6.0,6.0,76,0.00,,,0.00,meteobridge,2013-09-29 00:33:00,
2013-09-28 20:38:00,66.0,58.3,30.19,North,0,6.0,6.0,76,0.00,,,0.00,meteobridge,2013-09-29 00:38:00,
2013-09-28 20:43:00,66.0,58.3,30.19,North,0,5.4,6.0,76,0.00,,,0.00,meteobridge,2013-09-29 00:43:00,
2013-09-28 20:49:00,65.8,58.1,30.19,North,0,6.0,6.9,76,0.00,,,0.00,meteobridge,2013-09-29 00:49:00,
2013-09-28 20:54:00,65.7,58.6,30.19,North,0,3.8,6.0,78,0.00,,,0.00,meteobridge,2013-09-29 00:54:00,
2013-09-28 20:59:00,65.3,58.3,30.19,NW,315,3.8,5.4,78,0.00,,,0.00,meteobridge,2013-09-29 00:59:00,
2013-09-28 21:04:00,65.1,58.5,30.19,North,0,6.0,6.0,79,0.00,,,0.00,meteobridge,2013-09-29 01:04:00,
2013-09-28 21:09:00,64.9,58.6,30.19,NNW,338,7.6,7.6,80,0.00,,,0.00,meteobridge,2013-09-29 01:09:00,
2013-09-28 21:14:00,64.9,59.0,30.19,North,0,6.9,7.6,81,0.00,,,0.00,meteobridge,2013-09-29 01:14:00,
2013-09-28 21:20:00,64.9,59.4,30.19,North,0,5.4,6.9,82,0.00,,,0.00,meteobridge,2013-09-29 01:20:00,
2013-09-28 21:25:00,64.6,58.6,30.19,SE,135,1.6,6.0,81,0.00,,,0.00,meteobridge,2013-09-29 01:25:00,
2013-09-28 21:30:00,64.2,58.3,30.18,SE,135,2.2,3.1,81,0.00,,,0.00,meteobridge,2013-09-29 01:30:00,
2013-09-28 21:35:00,63.7,58.1,30.19,SE,135,2.2,3.8,82,0.00,,,0.00,meteobridge,2013-09-29 01:35:00,
2013-09-28 21:40:00,63.7,58.1,30.19,NE,45,2.2,3.1,82,0.00,,,0.00,meteobridge,2013-09-29 01:40:00,
2013-09-28 21:45:00,63.7,58.1,30.19,ENE,68,2.2,2.2,82,0.00,,,0.00,meteobridge,2013-09-29 01:45:00,
2013-09-28 21:50:00,63.5,57.6,30.19,NE,45,3.8,3.8,81,0.00,,,0.00,meteobridge,2013-09-29 01:50:00,
2013-09-28 21:56:00,63.5,57.6,30.18,East,90,3.1,3.1,81,0.00,,,0.00,meteobridge,2013-09-29 01:56:00,
2013-09-28 22:01:00,63.1,57.2,30.18,NE,45,6.0,6.0,81,0.00,,,0.00,meteobridge,2013-09-29 02:01:00,
2013-09-28 22:06:00,63.1,57.2,30.18,North,0,1.6,3.8,81,0.00,,,0.00,meteobridge,2013-09-29 02:06:00,
2013-09-28 22:11:00,63.0,57.4,30.19,NNE,23,3.8,3.8,82,0.00,,,0.00,meteobridge,2013-09-29 02:11:00,
2013-09-28 22:16:00,63.0,57.4,30.19,NE,45,3.1,3.8,82,0.00,,,0.00,meteobridge,2013-09-29 02:16:00,
2013-09-28 22:21:00,62.6,57.0,30.19,NE,45,3.1,3.1,82,0.00,,,0.00,meteobridge,2013-09-29 02:21:00,
2013-09-28 22:27:00,62.6,57.4,30.18,East,90,4.5,4.5,83,0.00,,,0.00,meteobridge,2013-09-29 02:27:00,
2013-09-28 22:32:00,62.4,57.6,30.19,North,0,4.5,4.5,84,0.00,,,0.00,meteobridge,2013-09-29 02:32:00,
2013-09-28 22:37:00,62.1,57.2,30.19,NE,45,2.2,3.1,84,0.00,,,0.00,meteobridge,2013-09-29 02:37:00,
2013-09-28 22:42:00,61.9,57.0,30.18,ENE,68,5.4,5.4,84,0.00,,,0.00,meteobridge,2013-09-29 02:42:00,
2013-09-28 22:47:00,61.9,57.4,30.18,East,90,3.1,4.5,85,0.00,,,0.00,meteobridge,2013-09-29 02:47:00,
2013-09-28 22:52:00,61.9,57.4,30.18,East,90,2.2,3.1,85,0.00,,,0.00,meteobridge,2013-09-29 02:52:00,
2013-09-28 22:58:00,61.7,57.4,30.18,NE,45,2.2,2.2,86,0.00,,,0.00,meteobridge,2013-09-29 02:58:00,
2013-09-28 23:03:00,61.5,57.4,30.18,East,90,3.1,3.1,86,0.00,,,0.00,meteobridge,2013-09-29 03:03:00,
2013-09-28 23:08:00,61.5,57.4,30.18,NE,45,3.1,4.5,86,0.00,,,0.00,meteobridge,2013-09-29 03:08:00,
2013-09-28 23:13:00,61.3,57.2,30.18,SE,135,2.2,2.2,86,0.00,,,0.00,meteobridge,2013-09-29 03:13:00,
2013-09-28 23:18:00,61.3,57.4,30.18,East,90,3.1,3.1,87,0.00,,,0.00,meteobridge,2013-09-29 03:18:00,
2013-09-28 23:23:00,61.2,57.2,30.18,SE,135,2.2,2.2,87,0.00,,,0.00,meteobridge,2013-09-29 03:23:00,
2013-09-28 23:28:00,61.2,57.2,30.18,SE,135,2.2,2.2,87,0.00,,,0.00,meteobridge,2013-09-29 03:28:00,
2013-09-28 23:34:00,61.2,57.6,30.18,NE,45,3.1,3.1,88,0.00,,,0.00,meteobridge,2013-09-29 03:34:00,
2013-09-28 23:39:00,61.2,57.6,30.17,SE,135,3.1,4.5,88,0.00,,,0.00,meteobridge,2013-09-29 03:39:00,
2013-09-28 23:44:00,61.0,57.4,30.18,East,90,2.2,3.1,88,0.00,,,0.00,meteobridge,2013-09-29 03:44:00,
2013-09-28 23:49:00,61.0,57.4,30.17,East,90,2.2,3.1,88,0.00,,,0.00,meteobridge,2013-09-29 03:49:00,
2013-09-28 23:54:00,60.8,57.6,30.17,SE,135,3.1,3.1,89,0.00,,,0.00,meteobridge,2013-09-29 03:54:00,
2013-09-28 23:59:00,60.8,57.6,30.17,SE,135,2.2,3.1,89,0.00,,,0.00,meteobridge,2013-09-29 03:59:00,